sat.trackr.live / text

‹ back to catalog

COSMOS 2493 (SKRL-756 1)

NORAD 39490 · 2013-078A

PAYLOAD ACTIVE UNKNOWN

§ Identity

Operator
Country
CIS
Launch date
2013-12-28
Launch site
PLMSC
Launch vehicle
Mass (kg)
RCS (m²)
0.68

Purposes: military

External: N2YO · Heavens-Above · Gunter

§ Orbital elements

Epoch: 2026-05-25T04:04:01.509888Z

Period
95.87 min
Inclination
82.4113°
Eccentricity
0.0011945
Mean motion
15.02013765 rev/d
Perigee alt
552.4 km
Apogee alt
569.0 km
Semi-major
6,938.8 km
B*
1.8242e-4
RAAN
283.7034°
Arg perigee
327.4431°
Mean anomaly
32.6056°
Rev number
67,450

§ Raw data

COSMOS 2493 (SKRL-756 1)1 39490U 13078A   26145.16946192  .00002420  00000+0  18242-3 0  99972 39490  82.4113 283.7034 0011945 327.4431  32.6056 15.02013765674501

JSON: /api/v1/satellites/39490 · /tle

For live sub-satellite position, see the globe view (requires WebGL).

§ Visibility from observer

Set your observer location to see the next 7 days of passes ≥ 10°. The values pass through the URL so the page stays shareable.

No JS? Fill the form by hand. The geolocation button needs JavaScript.